www.pogodaiklimat.ru
Время
(UTC), дата
18 13.10
21 13.10
00 14.10
03 14.10
06 14.10
09 14.10
12 14.10
15 14.10
18 14.10
21 14.10
00 15.10
03 15.10
06 15.10
09 15.10
12 15.10
15 15.10
18 15.10
21 15.10
00 16.10
03 16.10
06 16.10
09 16.10
12 16.10
15 16.10
18 16.10
21 16.10
00 17.10
03 17.10
06 17.10
09 17.10
12 17.10
15 17.10
18 17.10
21 17.10
00 18.10
03 18.10
06 18.10
09 18.10
12 18.10
15 18.10
18 18.10
21 18.10
00 19.10
03 19.10
06 19.10
09 19.10
12 19.10
15 19.10
18 19.10
21 19.10
00 20.10
03 20.10
06 20.10
09 20.10
12 20.10
15 20.10
Ветер
(напр.,м/с)
Видим. Явления Облачность Т
(С)
Тd
(С)
f
(%)
Тe
(С)
Тes
(С)
Комфортность P
(гПа)
Po
(гПа)
Тmin
(С)
Tmax
(С)
R
(мм)
R24
(мм)
S
(см)
В 2 10 км {дождь} 10/10 450 м
[Sc]
+3.3 +2.5 94 0 0 по сезону 994.4 984.8
СВ 3 4000 м слаб. дождь 10/4 300 м
[Sc As op]
+2.5 +1.7 94 -2 -2 по сезону 995.1 985.4
С 3 4000 м слаб. дождь 10/10 330 м
[Sc]
+2.3 +1.5 94 -2 -2 по сезону 996.0 986.3
С 5 10 км {дождь} 10/10 300 м
[Sc]
+2.3 +1.8 96 -3 -3 прохладно 996.7 987.0 +2.3 5
С 4 10 км слаб. дождь 10/8 150 м
[Frnb As op]
+2.9 +2.1 94 -2 -2 по сезону 998.3 988.6
С 5
{10}
4300 м слаб. дождь 10/8 150 м
[Frnb As op]
+2.5 +2.0 96 -3 -3 прохладно 1000.0 990.3
С 5 15 км {дождь} 10/10 300 м
[Sc]
+2.7 +1.4 91 -3 -3 прохладно 1001.1 991.4
С 3 4000 м слаб. морось 10/10 210 м
[St]
+2.7 +1.9 94 -2 -2 по сезону 1002.1 992.4 +3.5 0.3
С 4 4000 м слаб. морось 10/10 300 м
[St]
+2.9 +1.6 91 -2 -2 по сезону 1002.8 993.1
С 6-10
{11}
2000 м морось 10/10 240 м
[St]
+2.5 +1.7 94 -4 -4 прохладно 1003.2 993.5
С 3
{11}
10 км {морось} 10/10 270 м
[St]
+2.1 +0.8 91 -2 -2 по сезону 1004.4 994.7
С 3 7000 м слаб. морось 10/10 210 м
[St]
+1.8 +1.3 96 -3 -3 прохладно 1005.5 995.7 +2.0 0.3
СЗ 3 18 км слаб. дождь {морось} 10/10 300 м
[Sc]
+1.8 +0.5 91 -3 -3 прохладно 1007.1 997.1
СЗ 3 18 км слаб. дождь 10/4 300 м
[Sc As op]
+1.8 +0.2 89 -3 -2 прохладно 1008.7 998.7
СЗ 3 20 км {снег, дождь} 9/3 300 м
[Sc Ac trans]
+2.0 -1.4 78 -2 -2 по сезону 1010.3 1000.5
СЗ 2 10 км 9/4 300 м
[Sc Ac trans]
+1.0 -0.7 88 -3 -3 прохладно 1011.8 1001.8 +2.6 0.0
СЗ 2 10 км в посл. час снег 10/10 540 м
[Sc]
+1.0 +0.2 94 -3 -3 прохладно 1012.8 1002.8
СЗ 2 10 км 10/6 600 м
[Sc Ac und]
+1.0 +0.2 94 -3 -3 прохладно 1014.3 1004.3
СЗ 2 10 км 10/8 420 м
[Sc Ac und]
+0.6 -0.2 94 -3 -3 прохладно 1016.3 1006.2
С 3 15 км 10/10 330 м
[Sc]
+0.6 0.0 96 -4 -4 прохладно 1018.1 1008.0 +0.6 0.0
СЗ 2 20 км 10/10 180 м
[St]
+0.9 +0.1 94 -3 -3 прохладно 1019.6 1009.5
СЗ 2 22 км 9/9 660 м
[Cb cap Ac trans]
+1.8 -0.1 87 -2 -1 по сезону 1020.7 1010.6
С 3 18 км 9/4 300 м
[Cb cap Ac trans]
+0.9 -0.5 90 -4 -4 прохладно 1021.9 1011.8
СВ 2 10 км {ливн. осадки} 10/5 900 м
[Cb cap Ac und]
-0.2 -1.4 92 -4 -4 прохладно 1022.6 1012.5 +2.2 0.5
штиль 0 10 км {ливн. осадки} 10/10 840 м
[Sc]
-1.1 -2.9 88 -2 -2 по сезону 1023.1 1013.0
10 км 10/10 800 м
[Sc]
-1.6 -3.8 85 1023.3 1013.2
нст 1 10 км 10/10 540 м
[Sc]
-2.0 -3.3 91 -4 -4 прохладно 1023.4 1013.3
ЮВ 3 14 км 10/10 540 м
[Sc]
-2.2 -3.7 89 -7 -7 холодно 1022.9 1012.8 -2.2
ЮВ 3 20 км 10/8 480 м
[Sc Ac und]
-2.2 -3.4 91 -7 -7 холодно 1022.9 1012.8
В 3 20 км 10/8 480 м
[Sc Ac und]
-1.8 -5.2 78 -7 -7 холодно 1022.2 1012.1
В 3 20 км 10/6 450 м
[Sc Ac und]
-1.9 -5.0 79 -7 -7 холодно 1021.8 1011.7
ЮВ 1 10 км 10/0
[Ac und]
-2.1 -4.6 83 -4 -4 прохладно 1022.1 1012.0 -1.5
ЮВ 1 10 км 10/5 1200 м
[Sc Ac und]
-2.3 -3.8 89 -5 -5 холодно 1022.2 1012.1
ЮВ 3 10 км 10/6 1080 м
[Sc Ac und]
-2.8 -4.1 91 -8 -8 очень
холодно
1022.9 1012.8
ЮВ 3 10 км 10/10 420 м
[Sc]
-3.6 -6.5 80 -9 -9 очень
холодно
1023.8 1013.5
ЮВ 3 11 км 10/10 450 м
[Sc]
-3.9 -7.2 78 -9 -9 очень
холодно
1024.9 1014.6 -3.9
ЮВ 3 20 км 8/4 600 м
[Sc Ac trans]
-3.2 -7.1 74 -8 -8 очень
холодно
1026.1 1015.7
ЮВ 3 20 км 9/4 600 м
[Sc Ac trans]
-2.8 -7.3 71 -8 -7 очень
холодно
1026.6 1016.4
ЮВ 2 21 км 9/4 600 м
[Sc Ac trans]
-2.6 -7.4 70 -6 -6 холодно 1026.9 1016.7
ЮВ 4 10 км 10/10 630 м
[Sc]
-4.0 -7.7 75 -10 -10 очень
холодно
1027.3 1016.9 -1.6
ЮВ 5 10 км 9/6 540 м
[Sc Ac As]
-5.4 -8.3 80 -13 -13 очень
холодно
1027.0 1016.6
Ю 5
{10}
10 км 10/10 300 м
[Sc]
-6.6 -8.6 86 -14 -14 очень
холодно
1026.3 1016.0
Ю 5 10 км 10/10 300 м
[Sc]
-6.4 -8.0 88 -14 -14 очень
холодно
1025.8 1015.4
Ю 5
{10}
10 км 10/10 300 м
[Sc]
-5.5 -8.1 82 -13 -13 очень
холодно
1024.9 1014.5 -6.6
ЮВ 6
{11}
15 км 10/6 500 м
[Sc Ac und]
-3.8 -5.6 87 -11 -11 очень
холодно
1023.1 1012.8
ЮВ 5-10
{11}
20 км 10/8 720 м
[Sc Ac und]
-1.1 -4.7 77 -7 -7 холодно 1021.3 1011.2
Ю 3
{11}
23 км 10/10 660 м
[Sc]
-0.3 -4.7 72 -5 -5 холодно 1020.1 1010.0
Ю 4 4000 м слаб. ливневой снег 10/10 480 м
[Cb cap]
-0.3 -4.0 76 -6 -6 холодно 1019.1 1009.0 -0.2 0.0
Ю 4 4000 м слаб. ливневой снег 10/10 700 м
[Cb cap]
-0.6 -2.4 88 -6 -6 холодно 1017.3 1007.2
ЮВ 6-10
{10}
4000 м в посл. час крупа {ливн. осадки} 10/10 600 м
[Cb cap]
-0.7 -1.9 92 -8 -8 очень
холодно
1014.9 1004.9
ЮВ 5
{10}
4000 м {ливн. осадки} 10/10 450 м
[Cb cap]
-0.5 -1.7 92 -7 -7 холодно 1011.6 1001.6
Ю 5
{10}
5000 м слаб. переохл. дождь (гололёд) 10/10 240 м
[Frnb Ns]
0.0 -0.6 96 -6 -6 холодно 1008.4 998.4 -0.6 3
Ю 3 5000 м слаб. дождь [диам. гололёда 3 мм] 10/10 300 м
[Sc]
+0.2 -0.3 96 -5 -5 холодно 1006.7 996.7
нст 1 3000 м в посл. час ливневой снег {дождь} [диам. гололёда 1 мм] 10/10 210 м
[St]
+0.2 -0.1 98 -2 -2 по сезону 1006.0 996.0
штиль 0 15 км {ливн. осадки, дождь} 10/10 90 м
[St]
+0.8 +0.3 96 -1 -1 по сезону 1007.1 997.1
С 4 4000 м слаб. ливневой снег 10/10 330 м
[Cb cap]
+0.4 -0.4 94 -5 -5 холодно 1010.3 1000.3 +1.1 8
Местоположение метеостанции Усть-Цильма (Коми, Россия): широта 65.43 долгота 52.27 высота над уровнем моря 79 м.
В архиве по умолчанию представлена погода в Усть-Цильме за последнюю неделю. Архивные данные за месяц целиком и за предыдущие месяцы, начиная с января 2011 года, Вы можете получить, выбрав интересующий диапазон дат из раскрывающегося списка и нажав кнопку "Найти!".
*Определитесь, кто Вы:
Внимание! Время в таблицах - всемирное. Для получения местного времени необходимо прибавить поправку, которая равна 3 ч.
Смотрите также архив погоды в соседних городах и на ближайших метеорологических станциях:
Партнеры нашего сайта:      
Пояснения к столбцам:
  • Ветер - указаны скорость ветра в м/с - средняя за 10 мин, порывы в срок и между сроками (в фигурных скобках) и направление, откуда дует ветер: С - северный,
  • СВ - северо-восточный, В - восточный, ЮВ - юго-восточный, Ю - южный, ЮЗ - юго-западный, З - западный, СЗ - северо-западный.
  • Видимость - горизонтальная дальность видимости в метрах или километрах. При видимости от 1 до 10 км при отсутствии осадков обычно наблюдается дымка, при ухудшении видимости до 1 км и менее - туман. В сухую погоду видимость может ухудшаться дымом, пылью или мглою.
  • Явления - указаны атмосферные явления, наблюдавшиеся в срок или в последний час перед сроком; фигурными скобками обозначены явления, наблюдавшиеся между сроками (за 1-3 часа до срока); квадратными скобками обозначены град или гололедные отложения с указанием их диаметра в мм.
  • Облачность - указаны через наклонную черту общая и нижняя облачность в баллах и высота нижней границы облаков в метрах; квадратными скобками обозначены формы облаков: Ci - перистые, Cs - перисто-слоистые, Cc - перисто-кучевые, Ac - высококучевые, As - высокослоистые, Sc - слоисто-кучевые, Ns - слоисто-дождевые, Cu - кучевые, Cb - кучево-дождевые. Подробнее классификацию облаков см. в Атласе облаков (PDF).
  • T - Температура воздуха - температура, измеренная на высоте 2 м над землей.
  • Td - Температура точки росы - температура, при понижении до которой содержащийся в воздухе водяной пар достигнет насыщения.
  • f - Относительная влажность воздуха - влажноcть воздуха, измеренная на высоте 2 м над землей.
  • Te - Эффективная температура - температура, которую ощущает одетый по сезону человек в тени. Характеристика душности погоды. При расчете учитывается влияние влажности воздуха и скорости ветра на теплоощущения человека.
  • Tes - Эффективная температура на солнце - температура, которую ощущает человек, с поправкой на солнечный нагрев. Характеристика знойности погоды. Зависит от высоты солнца над горизонтом, облачности и скорости ветра. Ночью, в пасмурную погоду, а также при ветре 12 м/с и более поправка равна нулю.
  • P - Атмосферное давление - приведенное к уровню моря атмосферное давление.
  • Po - Атмосферное давление - измеренное на уровне метеостанции атмосферное давление.
  • Tmin - Минимальная температура - минимум температуры воздуха на высоте 2 м над землей.
  • Tmax - Максимальная температура - максимум температуры воздуха на высоте 2 м над землей.
  • R - Количество осадков - Количество выпавших осадков за период времени, мм. При наведении курсора мыши на число - период времени, за который выпало указанное количество осадков.
  • R24 - Количество осадков - Количество выпавших осадков за 24 часа, мм.
  • S - Снежный покров - Высота снежного покрова, см. При наведении курсора мыши на число - состояние снежного покрова и степень покрытия местности в баллах.